Home > Weather > Wegberg > Past weeks

Flag for Germany Past Weather in Wegberg, North Rhine-Westphalia, Germany — Yesterday and Last 2 Weeks

Now
73 °F

Scattered showers. Passing clouds.


Feels Like: 73 °F
Forecast: 62 / 78 °F
Wind: 3 mph from Northwest

Location: Monchengladbach Airport

Current Time: Jul 23, 2016 at 11:26:27 PM

Latest Report: Jul 23, 2016 at 7:50 PM


Visibility: N/A

Pressure: 30.07 "Hg

Humidity: 83%

Dew Point: 68 °F

Location of WegbergLocation

Past Weather in Wegberg — Graph

°F

Wegberg Temperature Yesterday

Maximum temperature yesterday: 82 °F (at 3:20 PM)
Minimum temperature yesterday: 70 °F (at 7:50 AM)
Average temperature yesterday: 76 °F

High & Low Weather Summary for the Past Weeks

 TemperatureHumidityPressure
High95 °F (Jul 20, 4:50 PM)94% (Jul 17, 3:50 PM)30.30 "Hg (Jul 17, 3:50 PM)
Low54 °F (Jul 15, 6:50 AM)30% (Jul 20, 4:50 PM)29.77 "Hg (Jul 10, 5:50 PM)
Average73 °F60%30.04 "Hg
* Reported Jul 8 7:20 PM — Jul 23 7:50 PM, Wegberg, Weather by CustomWeather, © 2016

Note: Actual official high and low records may vary slightly from our data, if they occured in-between our weather recording intervals... More about our weather records

Advertising

Wegberg Weather History for the Previous 24 Hours

Scroll right to see more
 ConditionsComfort  
Time TempWeatherWind HumidityBarometerVisibility
7:50 PM
Sat, Jul 23
73 °FScattered showers. Passing clouds.3 mph83%30.07 "HgN/A
7:20 PM73 °FSprinkles. Partly cloudy.6 mph83%30.07 "HgN/A
6:50 PM77 °FPassing clouds.6 mph65%30.04 "HgN/A
6:20 PM79 °FPassing clouds.5 mph61%30.04 "Hg6 mi
5:50 PM79 °FPassing clouds.5 mph61%30.04 "Hg5 mi
5:20 PM77 °FPassing clouds.3 mph65%30.07 "Hg5 mi
4:50 PM77 °FPassing clouds.6 mph69%30.07 "Hg4 mi
4:20 PM75 °FPassing clouds.6 mph74%30.07 "Hg4 mi
3:50 PM75 °FPassing clouds.7 mph74%30.07 "Hg4 mi
3:20 PM75 °FPassing clouds.9 mph69%30.07 "Hg2 mi
2:50 PM75 °FPassing clouds.9 mph69%30.07 "Hg2 mi
2:20 PM73 °FPassing clouds.7 mph74%30.07 "Hg2 mi
1:50 PM72 °FPassing clouds.7 mph78%30.07 "Hg3 mi
1:20 PM72 °FBroken clouds.6 mph78%30.07 "Hg2 mi
12:50 PM72 °FFog.7 mph73%30.07 "Hg2 mi
12:20 PM72 °FFog.7 mph78%30.07 "Hg2 mi
11:50 AM70 °FFog.7 mph78%30.07 "Hg2 mi
11:20 AM70 °FFog.8 mph83%30.07 "Hg2 mi
10:50 AM70 °FFog.8 mph83%30.07 "Hg2 mi
10:20 AM68 °FFog.7 mph88%30.07 "Hg2 mi
9:50 AM68 °FFog.8 mph88%30.04 "Hg2 mi
9:20 AM68 °FFog.7 mph88%30.04 "Hg3 mi
8:50 AM68 °FFog.8 mph88%30.04 "Hg3 mi
8:20 AM68 °FClear.8 mph88%30.04 "Hg4 mi
7:50 AM68 °FClear.6 mph88%30.04 "Hg4 mi
Weather by CustomWeather, © 2016

See weather overviewHow to use our weather pages